Brainerd, MN

2:31 PM CDT on May 23, 2018 (GMT -0500)
Brainerd-Crow Wing County Regional

Weather History for KBRD - October, 2011

Change the Weather History Date:

Sunday, October 2, 2011

  Actual Average Record
Temperature  
Mean Temperature 62 °F 51 °F  
Max Temperature 79 °F 61 °F 88 °F (1992)
Min Temperature 45 °F 40 °F 16 °F (1974)
Degree Days  
Heating Degree Days 3 14  
Month to date heating degree days 28  
Cooling Degree Days 0 0  
Month to date cooling degree days 0  
Growing Degree Days 12 (Base 50)    
Moisture  
Dew Point 38 °F    
Average Humidity 47    
Maximum Humidity 66    
Minimum Humidity 26    
Precipitation  
Precipitation 0.00 in 0.11 in 1.75 in (1950)
Month to date precipitation 0.22  
Snow  
Snow 0.00 in 0.00 in - ()
Month to date snowfall 0.0  
Snow Depth -    
Sea Level Pressure  
Sea Level Pressure 30.14 in    
Wind  
Wind Speed 7 mph (South)    
Max Wind Speed 13 mph    
Max Gust Speed 18 mph    
Visibility 10 miles    
Events      
T = Trace of Precipitation, MM = Missing Value Source: NWS Daily Summary

Daily Weather History Graph

Daily Weather History Graph

Search for Another Location

Airport or City:

Astronomy

Oct. 02, 2011 Rise Set
Actual Time 7:16 AM CDT 6:54 PM CDT
Civil Twilight 6:46 AM CDT 7:24 PM CDT
Nautical Twilight 6:11 AM CDT 7:59 PM CDT
Astronomical Twilight 5:35 AM CDT 8:35 PM CDT
Moon 1:43 PM CDT (10/2) 10:34 PM CDT (10/2)
Length of Visible Light 12h 38m
Length of Day
11h 38m
Waxing Crescent, 35% of the Moon is Illuminated
Oct 2
Waxing Crescent
Oct 3
First Quarter
Oct 11
Full
Oct 19
Last Quarter
Oct 26
New

Hourly Weather History & Observations

Time (CDT) Temp. Windchill Dew Point Humidity Pressure Visibility Wind Dir Wind Speed Gust Speed Precip Events Conditions
12:53 AM 50.0 °F - 34.0 °F 54% 30.17 in 10.0 mi South 9.2 mph - N/A   Clear
1:53 AM 48.9 °F - 33.1 °F 54% 30.17 in 10.0 mi South 6.9 mph - N/A   Clear
2:53 AM 48.0 °F - 34.0 °F 58% 30.17 in 10.0 mi South 6.9 mph - N/A   Clear
3:53 AM 46.9 °F - 34.0 °F 61% 30.17 in 10.0 mi South 5.8 mph - N/A   Clear
4:53 AM 46.9 °F - 34.0 °F 61% 30.17 in 10.0 mi South 6.9 mph - N/A   Clear
5:53 AM 46.9 °F - 34.0 °F 61% 30.16 in 10.0 mi South 6.9 mph - N/A   Clear
6:53 AM 45.0 °F 42.6 °F 34.0 °F 65% 30.17 in 10.0 mi South 4.6 mph - N/A   Clear
7:53 AM 46.0 °F 43.9 °F 35.1 °F 66% 30.17 in 10.0 mi South 4.6 mph - N/A   Clear
8:53 AM 52.0 °F - 36.0 °F 54% 30.16 in 10.0 mi South 6.9 mph - N/A   Clear
9:53 AM 57.9 °F - 36.0 °F 44% 30.15 in 10.0 mi South 6.9 mph - N/A   Clear
10:53 AM 64.0 °F - 37.0 °F 37% 30.14 in 10.0 mi SSW 9.2 mph - N/A   Clear
11:53 AM 68.0 °F - 37.9 °F 33% 30.14 in 10.0 mi South 5.8 mph - N/A   Clear
12:53 PM 72.0 °F - 39.0 °F 30% 30.13 in 10.0 mi Variable 5.8 mph - N/A   Clear
1:53 PM 75.0 °F - 41.0 °F 29% 30.13 in 10.0 mi South 8.1 mph - N/A   Clear
2:53 PM 78.1 °F - 41.0 °F 27% 30.10 in 10.0 mi SSE 9.2 mph - N/A   Clear
3:53 PM 79.0 °F - 41.0 °F 26% 30.09 in 10.0 mi South 12.7 mph - N/A   Clear
4:53 PM 78.1 °F - 41.0 °F 27% 30.09 in 10.0 mi South 12.7 mph 18.4 mph N/A   Clear
5:53 PM 75.0 °F - 42.1 °F 31% 30.09 in 10.0 mi South 8.1 mph - N/A   Clear
6:53 PM 68.0 °F - 44.1 °F 42% 30.11 in 10.0 mi SE 3.5 mph - N/A   Clear
7:53 PM 61.0 °F - 46.9 °F 60% 30.12 in 10.0 mi Calm Calm - N/A   Clear
8:53 PM 62.1 °F - 44.1 °F 52% 30.11 in 10.0 mi SE 4.6 mph - N/A   Clear
9:53 PM 61.0 °F - 43.0 °F 52% 30.12 in 10.0 mi SE 3.5 mph - N/A   Clear
10:53 PM 60.1 °F - 42.1 °F 51% 30.12 in 10.0 mi SE 4.6 mph - N/A   Clear